Tracking 35331 objects as of 15-Sep-2026
HD Live streaming from Space Station
objects crossing your sky now

COSMOS 1186


COSMOS 1186 is no longer on orbit


NORAD ID: 11829
Int'l Code: 1980-047A
Launch date: June 6, 1980
Source: Commonwealth of Independent States (former USSR) (CIS)
Launch site: PLESETSK MISSILE AND SPACE COMPLEX (PKMTR)
Decay date: 1982-01-01
Your satellite tracking list
Your tracking list is empty




NASA's NSSDC Master Catalog

Two Line Element Set (TLE):
1 11829U 80047  A 82001.72738624  .31068989 +60321-5 +21748-3 0  9996
2 11829 073.9623 258.4546 0008994 159.8850 200.8925 16.53150843025530
Source of the keplerian elements: AFSPC